sat.trackr.live / text

‹ back to catalog

INTELSAT 23 (IS-23)

NORAD 38867 · 2012-057A

PAYLOAD ACTIVE UNKNOWN

§ Identity

Operator
Country
ITSO
Launch date
2012-10-14
Launch site
TYMSC
Launch vehicle
Mass (kg)
RCS (m²)
113.21

Purposes: comms

External: N2YO · Heavens-Above · Gunter

§ Orbital elements

Epoch: 2026-09-20T05:09:47.816064Z

Period
1,436.15 min
Inclination
0.0237°
Eccentricity
0.0001922
Mean motion
1.00267941 rev/d
Perigee alt
35,779.6 km
Apogee alt
35,795.8 km
Semi-major
42,165.8 km
B*
0.0000e+0
RAAN
260.7453°
Arg perigee
347.3842°
Mean anomaly
135.4083°
Rev number
5,090

§ Raw data

INTELSAT 23 (IS-23)1 38867U 12057A   26263.21513676 -.00000289  00000+0  00000+0 0  99952 38867   0.0237 260.7453 0001922 347.3842 135.4083  1.00267941 50906

JSON: /api/v1/satellites/38867 · /tle

For live sub-satellite position, see the globe view (requires WebGL).

§ Visibility from observer

Set your observer location to see the next 7 days of passes ≥ 10°. The values pass through the URL so the page stays shareable.

No JS? Fill the form by hand. The geolocation button needs JavaScript.